owner,sensor,date,latitude,longitude,vertical_datum,wind_speed,wind_to_direction,wind_speed_of_gust,qcFlag 
TCOON,ioos:station:TCOON:005:1,2016-07-01T00:00:00Z,27.6346,-97.2370,0.0,99.0,-9999.0,99.0,'11144222,99999999,11144222' 
TCOON,ioos:station:TCOON:005:1,2016-07-01T00:06:00Z,27.6346,-97.2370,0.0,99.0,-9999.0,99.0,'11144222,99999999,11144222' 
TCOON,ioos:station:TCOON:005:1,2016-07-01T00:12:00Z,27.6346,-97.2370,0.0,99.0,-9999.0,99.0,'11144222,99999999,11144222' 
TCOON,ioos:station:TCOON:005:1,2016-07-01T00:18:00Z,27.6346,-97.2370,0.0,5.1,117.0,6.3,'1111122,1111122,1111122' 
TCOON,ioos:station:TCOON:005:1,2016-07-01T01:18:00Z,27.6346,-97.2370,0.0,5.0,134.0,6.6,'1111122,1111122,1111122' 
TCOON,ioos:station:TCOON:005:1,2016-07-01T01:24:00Z,27.6346,-97.2370,0.0,5.1,126.0,6.5,'11111222,11111222,11111222' 
TCOON,ioos:station:TCOON:005:1,2016-07-01T01:30:00Z,27.6346,-97.2370,0.0,4.3,119.0,6.2,'11111222,11111222,11111222' 
TCOON,ioos:station:TCOON:005:1,2016-07-01T01:36:00Z,27.6346,-97.2370,0.0,99.0,-9999.0,99.0,'11144222,99999999,11144222' 
TCOON,ioos:station:TCOON:005:1,2016-07-01T01:42:00Z,27.6346,-97.2370,0.0,99.0,-9999.0,99.0,'11144222,99999999,11144222' 
TCOON,ioos:station:TCOON:005:1,2016-07-01T01:48:00Z,27.6346,-97.2370,0.0,99.0,-9999.0,99.0,'11144222,99999999,11144222' 
TCOON,ioos:station:TCOON:005:1,2016-07-01T01:54:00Z,27.6346,-97.2370,0.0,99.0,-9999.0,99.0,'11144222,99999999,11144222' 
TCOON,ioos:station:TCOON:005:1,2016-07-01T02:00:00Z,27.6346,-97.2370,0.0,99.0,-9999.0,99.0,'11144222,99999999,11144222' 
TCOON,ioos:station:TCOON:005:1,2016-07-01T02:06:00Z,27.6346,-97.2370,0.0,99.0,-9999.0,99.0,'11144222,99999999,11144222' 
TCOON,ioos:station:TCOON:005:1,2016-07-01T02:12:00Z,27.6346,-97.2370,0.0,99.0,-9999.0,99.0,'11144222,99999999,11144222' 
TCOON,ioos:station:TCOON:005:1,2016-07-01T02:18:00Z,27.6346,-97.2370,0.0,5.1,126.0,6.5,'1111122,1111122,1111122' 
TCOON,ioos:station:TCOON:005:1,2016-07-01T02:24:00Z,27.6346,-97.2370,0.0,99.0,-9999.0,99.0,'11144222,99999999,11144222' 
TCOON,ioos:station:TCOON:005:1,2016-07-01T02:30:00Z,27.6346,-97.2370,0.0,99.0,-9999.0,99.0,'11144222,99999999,11144222' 
TCOON,ioos:station:TCOON:005:1,2016-07-01T02:36:00Z,27.6346,-97.2370,0.0,99.0,-9999.0,99.0,'11144222,99999999,11144222' 
TCOON,ioos:station:TCOON:005:1,2016-07-01T02:42:00Z,27.6346,-97.2370,0.0,99.0,-9999.0,99.0,'11144222,99999999,11144222' 
TCOON,ioos:station:TCOON:005:1,2016-07-01T02:48:00Z,27.6346,-97.2370,0.0,99.0,-9999.0,99.0,'11144222,99999999,11144222' 
TCOON,ioos:station:TCOON:005:1,2016-07-01T02:54:00Z,27.6346,-97.2370,0.0,99.0,-9999.0,99.0,'11144222,99999999,11144222' 
TCOON,ioos:station:TCOON:005:1,2016-07-01T03:00:00Z,27.6346,-97.2370,0.0,99.0,-9999.0,99.0,'11144222,99999999,11144222' 
TCOON,ioos:station:TCOON:005:1,2016-07-01T03:06:00Z,27.6346,-97.2370,0.0,99.0,-9999.0,99.0,'11144222,99999999,11144222' 
TCOON,ioos:station:TCOON:005:1,2016-07-01T03:12:00Z,27.6346,-97.2370,0.0,99.0,-9999.0,99.0,'11144222,99999999,11144222' 
TCOON,ioos:station:TCOON:005:1,2016-07-01T03:18:00Z,27.6346,-97.2370,0.0,3.6,143.0,5.3,'1111122,1111122,1111122' 
TCOON,ioos:station:TCOON:005:1,2016-07-01T03:24:00Z,27.6346,-97.2370,0.0,4.3,150.0,5.6,'11111222,11111222,11111222' 
TCOON,ioos:station:TCOON:005:1,2016-07-01T03:30:00Z,27.6346,-97.2370,0.0,3.3,154.0,5.2,'11111222,11111222,11111222' 
TCOON,ioos:station:TCOON:005:1,2016-07-01T03:36:00Z,27.6346,-97.2370,0.0,99.0,-9999.0,99.0,'11144222,99999999,11144222' 
TCOON,ioos:station:TCOON:005:1,2016-07-01T03:42:00Z,27.6346,-97.2370,0.0,99.0,-9999.0,99.0,'11144222,99999999,11144222' 
TCOON,ioos:station:TCOON:005:1,2016-07-01T03:48:00Z,27.6346,-97.2370,0.0,99.0,-9999.0,99.0,'11144222,99999999,11144222' 
TCOON,ioos:station:TCOON:005:1,2016-07-01T03:54:00Z,27.6346,-97.2370,0.0,3.8,146.0,5.3,'11111222,11111222,11111222' 
TCOON,ioos:station:TCOON:005:1,2016-07-01T04:00:00Z,27.6346,-97.2370,0.0,3.9,149.0,5.6,'11111222,11111222,11111222' 
TCOON,ioos:station:TCOON:005:1,2016-07-01T04:06:00Z,27.6346,-97.2370,0.0,3.9,148.0,5.4,'11111222,11111222,11111222' 
TCOON,ioos:station:TCOON:005:1,2016-07-01T04:12:00Z,27.6346,-97.2370,0.0,4.1,146.0,5.4,'11111222,11111222,11111222' 
TCOON,ioos:station:TCOON:005:1,2016-07-01T04:18:00Z,27.6346,-97.2370,0.0,4.1,146.0,5.4,'1111122,1111122,1111122' 
TCOON,ioos:station:TCOON:005:1,2016-07-01T04:24:00Z,27.6346,-97.2370,0.0,4.1,150.0,5.7,'11111222,11111222,11111222' 
TCOON,ioos:station:TCOON:005:1,2016-07-01T04:30:00Z,27.6346,-97.2370,0.0,4.5,149.0,6.1,'11111222,11111222,11111222' 
TCOON,ioos:station:TCOON:005:1,2016-07-01T04:36:00Z,27.6346,-97.2370,0.0,3.3,151.0,5.5,'11111222,11111222,11111222' 
TCOON,ioos:station:TCOON:005:1,2016-07-01T04:42:00Z,27.6346,-97.2370,0.0,3.3,152.0,4.9,'11111222,11111222,11111222' 
TCOON,ioos:station:TCOON:005:1,2016-07-01T04:48:00Z,27.6346,-97.2370,0.0,3.7,151.0,5.1,'11111222,11111222,11111222' 
TCOON,ioos:station:TCOON:005:1,2016-07-01T04:54:00Z,27.6346,-97.2370,0.0,3.2,153.0,4.5,'11111222,11111222,11111222' 
TCOON,ioos:station:TCOON:005:1,2016-07-01T05:00:00Z,27.6346,-97.2370,0.0,3.8,158.0,5.0,'11111222,11111222,11111222' 
TCOON,ioos:station:TCOON:005:1,2016-07-01T05:06:00Z,27.6346,-97.2370,0.0,2.9,157.0,4.4,'11111222,11111222,11111222' 
TCOON,ioos:station:TCOON:005:1,2016-07-01T05:12:00Z,27.6346,-97.2370,0.0,2.8,154.0,4.1,'11111222,11111222,11111222' 
TCOON,ioos:station:TCOON:005:1,2016-07-01T05:18:00Z,27.6346,-97.2370,0.0,2.8,154.0,4.1,'1111122,1111122,1111122' 
TCOON,ioos:station:TCOON:005:1,2016-07-01T05:24:00Z,27.6346,-97.2370,0.0,2.5,152.0,3.7,'11111222,11111222,11111222' 
TCOON,ioos:station:TCOON:005:1,2016-07-01T05:30:00Z,27.6346,-97.2370,0.0,2.6,156.0,4.3,'11111222,11111222,11111222' 
TCOON,ioos:station:TCOON:005:1,2016-07-01T05:36:00Z,27.6346,-97.2370,0.0,2.6,154.0,3.8,'11111222,11111222,11111222' 
TCOON,ioos:station:TCOON:005:1,2016-07-01T05:42:00Z,27.6346,-97.2370,0.0,2.5,157.0,4.5,'11111222,11111222,11111222' 
TCOON,ioos:station:TCOON:005:1,2016-07-01T05:48:00Z,27.6346,-97.2370,0.0,2.3,165.0,3.7,'11111222,11111222,11111222' 
TCOON,ioos:station:TCOON:005:1,2016-07-01T05:54:00Z,27.6346,-97.2370,0.0,2.4,168.0,3.0,'11111222,11111222,11111222' 
TCOON,ioos:station:TCOON:005:1,2016-07-01T06:00:00Z,27.6346,-97.2370,0.0,2.8,163.0,3.6,'11111222,11111222,11111222' 
TCOON,ioos:station:TCOON:005:1,2016-07-01T06:06:00Z,27.6346,-97.2370,0.0,2.7,164.0,3.7,'11111222,11111222,11111222' 
TCOON,ioos:station:TCOON:005:1,2016-07-01T06:12:00Z,27.6346,-97.2370,0.0,3.1,162.0,4.1,'11111222,11111222,11111222' 
TCOON,ioos:station:TCOON:005:1,2016-07-01T06:18:00Z,27.6346,-97.2370,0.0,3.1,162.0,4.1,'1111122,1111122,1111122' 
TCOON,ioos:station:TCOON:005:1,2016-07-01T06:24:00Z,27.6346,-97.2370,0.0,2.8,166.0,4.2,'11111222,11111222,11111222' 
TCOON,ioos:station:TCOON:005:1,2016-07-01T06:30:00Z,27.6346,-97.2370,0.0,3.0,168.0,3.8,'11111222,11111222,11111222' 
TCOON,ioos:station:TCOON:005:1,2016-07-01T06:36:00Z,27.6346,-97.2370,0.0,2.7,169.0,3.9,'11111222,11111222,11111222' 
TCOON,ioos:station:TCOON:005:1,2016-07-01T06:42:00Z,27.6346,-97.2370,0.0,3.1,170.0,3.7,'11111222,11111222,11111222' 
TCOON,ioos:station:TCOON:005:1,2016-07-01T06:48:00Z,27.6346,-97.2370,0.0,2.7,166.0,3.7,'11111222,11111222,11111222' 
TCOON,ioos:station:TCOON:005:1,2016-07-01T06:54:00Z,27.6346,-97.2370,0.0,2.6,165.0,3.3,'11111222,11111222,11111222' 
TCOON,ioos:station:TCOON:005:1,2016-07-01T07:00:00Z,27.6346,-97.2370,0.0,3.3,164.0,4.0,'11111222,11111222,11111222' 
TCOON,ioos:station:TCOON:005:1,2016-07-01T07:06:00Z,27.6346,-97.2370,0.0,3.2,164.0,3.9,'11111222,11111222,11111222' 
TCOON,ioos:station:TCOON:005:1,2016-07-01T07:12:00Z,27.6346,-97.2370,0.0,2.9,165.0,4.1,'11111222,11111222,11111222' 
TCOON,ioos:station:TCOON:005:1,2016-07-01T07:18:00Z,27.6346,-97.2370,0.0,2.9,165.0,4.1,'1111122,1111122,1111122' 
TCOON,ioos:station:TCOON:005:1,2016-07-01T07:24:00Z,27.6346,-97.2370,0.0,2.7,173.0,3.5,'11111222,11111222,11111222' 
TCOON,ioos:station:TCOON:005:1,2016-07-01T07:30:00Z,27.6346,-97.2370,0.0,3.1,171.0,4.5,'11111222,11111222,11111222' 
TCOON,ioos:station:TCOON:005:1,2016-07-01T07:36:00Z,27.6346,-97.2370,0.0,3.3,169.0,4.5,'11111222,11111222,11111222' 
TCOON,ioos:station:TCOON:005:1,2016-07-01T07:42:00Z,27.6346,-97.2370,0.0,3.4,169.0,4.7,'11111222,11111222,11111222' 
TCOON,ioos:station:TCOON:005:1,2016-07-01T07:48:00Z,27.6346,-97.2370,0.0,3.5,172.0,4.7,'11111222,11111222,11111222' 
TCOON,ioos:station:TCOON:005:1,2016-07-01T07:54:00Z,27.6346,-97.2370,0.0,3.1,175.0,4.3,'11111222,11111222,11111222' 
TCOON,ioos:station:TCOON:005:1,2016-07-01T08:00:00Z,27.6346,-97.2370,0.0,3.1,171.0,3.9,'11111222,11111222,11111222' 
TCOON,ioos:station:TCOON:005:1,2016-07-01T08:06:00Z,27.6346,-97.2370,0.0,2.9,174.0,4.6,'11111222,11111222,11111222' 
TCOON,ioos:station:TCOON:005:1,2016-07-01T08:12:00Z,27.6346,-97.2370,0.0,3.1,173.0,4.5,'11111222,11111222,11111222' 
TCOON,ioos:station:TCOON:005:1,2016-07-01T08:18:00Z,27.6346,-97.2370,0.0,3.1,173.0,4.5,'1111122,1111122,1111122' 
TCOON,ioos:station:TCOON:005:1,2016-07-01T08:24:00Z,27.6346,-97.2370,0.0,3.6,176.0,4.6,'11111222,11111222,11111222' 
TCOON,ioos:station:TCOON:005:1,2016-07-01T08:30:00Z,27.6346,-97.2370,0.0,3.5,174.0,4.7,'11111222,11111222,11111222' 
TCOON,ioos:station:TCOON:005:1,2016-07-01T08:36:00Z,27.6346,-97.2370,0.0,4.0,172.0,5.0,'11111222,11111222,11111222' 
TCOON,ioos:station:TCOON:005:1,2016-07-01T08:42:00Z,27.6346,-97.2370,0.0,3.5,171.0,5.0,'11111222,11111222,11111222' 
TCOON,ioos:station:TCOON:005:1,2016-07-01T08:48:00Z,27.6346,-97.2370,0.0,3.5,170.0,4.7,'11111222,11111222,11111222' 
TCOON,ioos:station:TCOON:005:1,2016-07-01T08:54:00Z,27.6346,-97.2370,0.0,3.6,168.0,4.3,'11111222,11111222,11111222' 
TCOON,ioos:station:TCOON:005:1,2016-07-01T09:00:00Z,27.6346,-97.2370,0.0,3.2,166.0,4.5,'11111222,11111222,11111222' 
TCOON,ioos:station:TCOON:005:1,2016-07-01T09:06:00Z,27.6346,-97.2370,0.0,3.3,169.0,4.6,'11111222,11111222,11111222' 
TCOON,ioos:station:TCOON:005:1,2016-07-01T09:12:00Z,27.6346,-97.2370,0.0,3.4,175.0,4.4,'11111222,11111222,11111222' 
TCOON,ioos:station:TCOON:005:1,2016-07-01T09:18:00Z,27.6346,-97.2370,0.0,3.4,175.0,4.4,'1111122,1111122,1111122' 
TCOON,ioos:station:TCOON:005:1,2016-07-01T09:24:00Z,27.6346,-97.2370,0.0,3.5,183.0,4.1,'11111222,11111222,11111222' 
TCOON,ioos:station:TCOON:005:1,2016-07-01T09:30:00Z,27.6346,-97.2370,0.0,3.1,181.0,4.2,'11111222,11111222,11111222' 
TCOON,ioos:station:TCOON:005:1,2016-07-01T09:36:00Z,27.6346,-97.2370,0.0,3.4,173.0,4.5,'11111222,11111222,11111222' 
TCOON,ioos:station:TCOON:005:1,2016-07-01T09:42:00Z,27.6346,-97.2370,0.0,3.5,175.0,4.9,'11111222,11111222,11111222' 
TCOON,ioos:station:TCOON:005:1,2016-07-01T09:48:00Z,27.6346,-97.2370,0.0,2.9,178.0,4.4,'11111222,11111222,11111222' 
TCOON,ioos:station:TCOON:005:1,2016-07-01T09:54:00Z,27.6346,-97.2370,0.0,3.5,175.0,4.5,'11111222,11111222,11111222' 
TCOON,ioos:station:TCOON:005:1,2016-07-01T10:00:00Z,27.6346,-97.2370,0.0,2.5,180.0,4.1,'11111222,11111222,11111222' 
TCOON,ioos:station:TCOON:005:1,2016-07-01T10:06:00Z,27.6346,-97.2370,0.0,2.6,174.0,3.5,'11111222,11111222,11111222' 
TCOON,ioos:station:TCOON:005:1,2016-07-01T10:12:00Z,27.6346,-97.2370,0.0,2.8,178.0,3.7,'11111222,11111222,11111222' 
TCOON,ioos:station:TCOON:005:1,2016-07-01T10:18:00Z,27.6346,-97.2370,0.0,2.8,178.0,3.7,'1111122,1111122,1111122' 
TCOON,ioos:station:TCOON:005:1,2016-07-01T10:24:00Z,27.6346,-97.2370,0.0,2.6,185.0,3.7,'11111222,11111222,11111222' 
TCOON,ioos:station:TCOON:005:1,2016-07-01T10:30:00Z,27.6346,-97.2370,0.0,3.0,192.0,3.8,'11111222,11111222,11111222' 
TCOON,ioos:station:TCOON:005:1,2016-07-01T10:36:00Z,27.6346,-97.2370,0.0,3.2,189.0,4.5,'11111222,11111222,11111222' 
TCOON,ioos:station:TCOON:005:1,2016-07-01T10:42:00Z,27.6346,-97.2370,0.0,3.9,194.0,4.8,'11111222,11111222,11111222' 
TCOON,ioos:station:TCOON:005:1,2016-07-01T10:48:00Z,27.6346,-97.2370,0.0,3.5,195.0,4.5,'11111222,11111222,11111222' 
TCOON,ioos:station:TCOON:005:1,2016-07-01T10:54:00Z,27.6346,-97.2370,0.0,3.3,202.0,4.3,'11111222,11111222,11111222' 
TCOON,ioos:station:TCOON:005:1,2016-07-01T11:00:00Z,27.6346,-97.2370,0.0,3.8,196.0,4.3,'11111222,11111222,11111222' 
TCOON,ioos:station:TCOON:005:1,2016-07-01T11:06:00Z,27.6346,-97.2370,0.0,3.5,185.0,4.2,'11111222,11111222,11111222' 
TCOON,ioos:station:TCOON:005:1,2016-07-01T11:12:00Z,27.6346,-97.2370,0.0,3.1,182.0,4.8,'11111222,11111222,11111222' 
TCOON,ioos:station:TCOON:005:1,2016-07-01T11:18:00Z,27.6346,-97.2370,0.0,3.1,182.0,4.8,'1111122,1111122,1111122' 
TCOON,ioos:station:TCOON:005:1,2016-07-01T11:24:00Z,27.6346,-97.2370,0.0,2.7,193.0,3.4,'11111222,11111222,11111222' 
TCOON,ioos:station:TCOON:005:1,2016-07-01T11:30:00Z,27.6346,-97.2370,0.0,4.0,199.0,4.4,'11111222,11111222,11111222' 
TCOON,ioos:station:TCOON:005:1,2016-07-01T11:36:00Z,27.6346,-97.2370,0.0,4.3,200.0,5.4,'11111222,11111222,11111222' 
TCOON,ioos:station:TCOON:005:1,2016-07-01T11:42:00Z,27.6346,-97.2370,0.0,4.3,199.0,5.3,'11111222,11111222,11111222' 
TCOON,ioos:station:TCOON:005:1,2016-07-01T11:48:00Z,27.6346,-97.2370,0.0,4.6,198.0,5.4,'11111222,11111222,11111222' 
TCOON,ioos:station:TCOON:005:1,2016-07-01T11:54:00Z,27.6346,-97.2370,0.0,4.5,202.0,5.3,'11111222,11111222,11111222' 
TCOON,ioos:station:TCOON:005:1,2016-07-01T12:00:00Z,27.6346,-97.2370,0.0,4.2,200.0,5.5,'11111222,11111222,11111222' 
TCOON,ioos:station:TCOON:005:1,2016-07-01T12:06:00Z,27.6346,-97.2370,0.0,4.1,202.0,5.6,'11111222,11111222,11111222' 
TCOON,ioos:station:TCOON:005:1,2016-07-01T12:12:00Z,27.6346,-97.2370,0.0,4.4,197.0,5.2,'11111222,11111222,11111222' 
TCOON,ioos:station:TCOON:005:1,2016-07-01T12:18:00Z,27.6346,-97.2370,0.0,4.4,197.0,5.2,'1111122,1111122,1111122' 
TCOON,ioos:station:TCOON:005:1,2016-07-01T12:24:00Z,27.6346,-97.2370,0.0,4.4,200.0,5.3,'11111222,11111222,11111222' 
TCOON,ioos:station:TCOON:005:1,2016-07-01T12:30:00Z,27.6346,-97.2370,0.0,4.3,199.0,5.0,'11111222,11111222,11111222' 
TCOON,ioos:station:TCOON:005:1,2016-07-01T12:36:00Z,27.6346,-97.2370,0.0,3.7,200.0,5.3,'11111222,11111222,11111222' 
TCOON,ioos:station:TCOON:005:1,2016-07-01T12:42:00Z,27.6346,-97.2370,0.0,3.3,190.0,4.5,'11111222,11111222,11111222' 
TCOON,ioos:station:TCOON:005:1,2016-07-01T12:48:00Z,27.6346,-97.2370,0.0,4.2,187.0,5.1,'11111222,11111222,11111222' 
TCOON,ioos:station:TCOON:005:1,2016-07-01T12:54:00Z,27.6346,-97.2370,0.0,3.6,186.0,4.5,'11111222,11111222,11111222' 
TCOON,ioos:station:TCOON:005:1,2016-07-01T13:00:00Z,27.6346,-97.2370,0.0,4.2,189.0,5.0,'11111222,11111222,11111222' 
TCOON,ioos:station:TCOON:005:1,2016-07-01T13:06:00Z,27.6346,-97.2370,0.0,4.0,184.0,5.1,'11111222,11111222,11111222' 
TCOON,ioos:station:TCOON:005:1,2016-07-01T13:12:00Z,27.6346,-97.2370,0.0,3.5,187.0,4.6,'11111222,11111222,11111222' 
TCOON,ioos:station:TCOON:005:1,2016-07-01T13:18:00Z,27.6346,-97.2370,0.0,3.5,187.0,4.6,'1111122,1111122,1111122' 
TCOON,ioos:station:TCOON:005:1,2016-07-01T13:24:00Z,27.6346,-97.2370,0.0,3.9,185.0,4.9,'11111222,11111222,11111222' 
TCOON,ioos:station:TCOON:005:1,2016-07-01T13:30:00Z,27.6346,-97.2370,0.0,4.2,186.0,4.9,'11111222,11111222,11111222' 
TCOON,ioos:station:TCOON:005:1,2016-07-01T13:36:00Z,27.6346,-97.2370,0.0,4.4,184.0,5.0,'11111222,11111222,11111222' 
TCOON,ioos:station:TCOON:005:1,2016-07-01T13:42:00Z,27.6346,-97.2370,0.0,3.8,185.0,5.0,'11111222,11111222,11111222' 
TCOON,ioos:station:TCOON:005:1,2016-07-01T13:48:00Z,27.6346,-97.2370,0.0,5.5,183.0,6.4,'11111222,11111222,11111222' 
TCOON,ioos:station:TCOON:005:1,2016-07-01T13:54:00Z,27.6346,-97.2370,0.0,5.3,180.0,6.2,'11111222,11111222,11111222' 
TCOON,ioos:station:TCOON:005:1,2016-07-01T14:00:00Z,27.6346,-97.2370,0.0,4.5,185.0,6.3,'11111222,11111222,11111222' 
TCOON,ioos:station:TCOON:005:1,2016-07-01T14:06:00Z,27.6346,-97.2370,0.0,4.3,186.0,5.5,'11111222,11111222,11111222' 
TCOON,ioos:station:TCOON:005:1,2016-07-01T14:12:00Z,27.6346,-97.2370,0.0,6.0,175.0,7.3,'11111222,11111222,11111222' 
TCOON,ioos:station:TCOON:005:1,2016-07-01T14:18:00Z,27.6346,-97.2370,0.0,6.0,175.0,7.3,'1111122,1111122,1111122' 
TCOON,ioos:station:TCOON:005:1,2016-07-01T14:24:00Z,27.6346,-97.2370,0.0,5.5,184.0,7.2,'11111222,11111222,11111222' 
TCOON,ioos:station:TCOON:005:1,2016-07-01T14:30:00Z,27.6346,-97.2370,0.0,5.1,167.0,6.6,'11111222,11111222,11111222' 
TCOON,ioos:station:TCOON:005:1,2016-07-01T14:36:00Z,27.6346,-97.2370,0.0,5.0,187.0,6.3,'11111222,11111222,11111222' 
TCOON,ioos:station:TCOON:005:1,2016-07-01T14:42:00Z,27.6346,-97.2370,0.0,5.4,174.0,7.0,'11111222,11111222,11111222' 
TCOON,ioos:station:TCOON:005:1,2016-07-01T14:48:00Z,27.6346,-97.2370,0.0,4.9,168.0,7.4,'11111222,11111222,11111222' 
TCOON,ioos:station:TCOON:005:1,2016-07-01T14:54:00Z,27.6346,-97.2370,0.0,4.6,177.0,6.9,'11111222,11111222,11111222' 
TCOON,ioos:station:TCOON:005:1,2016-07-01T15:00:00Z,27.6346,-97.2370,0.0,3.7,171.0,6.2,'11111222,11111222,11111222' 
TCOON,ioos:station:TCOON:005:1,2016-07-01T15:06:00Z,27.6346,-97.2370,0.0,5.0,158.0,6.4,'11111222,11111222,11111222' 
TCOON,ioos:station:TCOON:005:1,2016-07-01T15:12:00Z,27.6346,-97.2370,0.0,4.5,155.0,5.7,'11111222,11111222,11111222' 
TCOON,ioos:station:TCOON:005:1,2016-07-01T15:18:00Z,27.6346,-97.2370,0.0,4.5,155.0,5.7,'1111122,1111122,1111122' 
TCOON,ioos:station:TCOON:005:1,2016-07-01T15:24:00Z,27.6346,-97.2370,0.0,3.8,176.0,6.5,'11111222,11111222,11111222' 
TCOON,ioos:station:TCOON:005:1,2016-07-01T15:30:00Z,27.6346,-97.2370,0.0,4.5,160.0,5.6,'11111222,11111222,11111222' 
TCOON,ioos:station:TCOON:005:1,2016-07-01T15:36:00Z,27.6346,-97.2370,0.0,5.0,152.0,6.4,'11111222,11111222,11111222' 
TCOON,ioos:station:TCOON:005:1,2016-07-01T15:42:00Z,27.6346,-97.2370,0.0,4.2,180.0,6.0,'11111222,11111222,11111222' 
TCOON,ioos:station:TCOON:005:1,2016-07-01T15:48:00Z,27.6346,-97.2370,0.0,4.1,161.0,6.6,'11111222,11111222,11111222' 
TCOON,ioos:station:TCOON:005:1,2016-07-01T15:54:00Z,27.6346,-97.2370,0.0,5.4,148.0,7.2,'11111222,11111222,11111222' 
TCOON,ioos:station:TCOON:005:1,2016-07-01T16:00:00Z,27.6346,-97.2370,0.0,4.0,148.0,7.3,'11111222,11111222,11111222' 
TCOON,ioos:station:TCOON:005:1,2016-07-01T16:06:00Z,27.6346,-97.2370,0.0,3.9,161.0,5.3,'11111222,11111222,11111222' 
TCOON,ioos:station:TCOON:005:1,2016-07-01T16:12:00Z,27.6346,-97.2370,0.0,4.3,171.0,5.4,'11111222,11111222,11111222' 
TCOON,ioos:station:TCOON:005:1,2016-07-01T16:18:00Z,27.6346,-97.2370,0.0,4.3,171.0,5.4,'1111122,1111122,1111122' 
TCOON,ioos:station:TCOON:005:1,2016-07-01T16:24:00Z,27.6346,-97.2370,0.0,4.9,147.0,6.4,'11111222,11111222,11111222' 
TCOON,ioos:station:TCOON:005:1,2016-07-01T16:30:00Z,27.6346,-97.2370,0.0,4.7,150.0,6.3,'11111222,11111222,11111222' 
TCOON,ioos:station:TCOON:005:1,2016-07-01T16:36:00Z,27.6346,-97.2370,0.0,4.5,143.0,5.8,'11111222,11111222,11111222' 
TCOON,ioos:station:TCOON:005:1,2016-07-01T16:42:00Z,27.6346,-97.2370,0.0,4.6,145.0,6.2,'11111222,11111222,11111222' 
TCOON,ioos:station:TCOON:005:1,2016-07-01T16:48:00Z,27.6346,-97.2370,0.0,3.9,136.0,5.5,'11111222,11111222,11111222' 
TCOON,ioos:station:TCOON:005:1,2016-07-01T16:54:00Z,27.6346,-97.2370,0.0,4.3,133.0,5.5,'11111222,11111222,11111222' 
TCOON,ioos:station:TCOON:005:1,2016-07-01T17:00:00Z,27.6346,-97.2370,0.0,2.6,153.0,5.8,'11111222,11111222,11111222' 
TCOON,ioos:station:TCOON:005:1,2016-07-01T17:06:00Z,27.6346,-97.2370,0.0,4.3,149.0,6.0,'11111222,11111222,11111222' 
TCOON,ioos:station:TCOON:005:1,2016-07-01T17:12:00Z,27.6346,-97.2370,0.0,3.4,154.0,5.2,'11111222,11111222,11111222' 
TCOON,ioos:station:TCOON:005:1,2016-07-01T17:18:00Z,27.6346,-97.2370,0.0,3.4,154.0,5.2,'1111122,1111122,1111122' 
TCOON,ioos:station:TCOON:005:1,2016-07-01T17:24:00Z,27.6346,-97.2370,0.0,5.0,131.0,7.0,'11111222,11111222,11111222' 
TCOON,ioos:station:TCOON:005:1,2016-07-01T17:30:00Z,27.6346,-97.2370,0.0,5.0,132.0,6.7,'11111222,11111222,11111222' 
TCOON,ioos:station:TCOON:005:1,2016-07-01T17:36:00Z,27.6346,-97.2370,0.0,4.8,136.0,6.4,'11111222,11111222,11111222' 
TCOON,ioos:station:TCOON:005:1,2016-07-01T17:42:00Z,27.6346,-97.2370,0.0,5.8,134.0,6.9,'11111222,11111222,11111222' 
TCOON,ioos:station:TCOON:005:1,2016-07-01T17:48:00Z,27.6346,-97.2370,0.0,5.7,127.0,7.4,'11111222,11111222,11111222' 
TCOON,ioos:station:TCOON:005:1,2016-07-01T17:54:00Z,27.6346,-97.2370,0.0,5.1,134.0,7.4,'11111222,11111222,11111222' 
TCOON,ioos:station:TCOON:005:1,2016-07-01T18:00:00Z,27.6346,-97.2370,0.0,5.4,135.0,7.4,'11111222,11111222,11111222' 
TCOON,ioos:station:TCOON:005:1,2016-07-01T18:06:00Z,27.6346,-97.2370,0.0,4.8,135.0,7.7,'11111222,11111222,11111222' 
TCOON,ioos:station:TCOON:005:1,2016-07-01T18:12:00Z,27.6346,-97.2370,0.0,4.7,136.0,6.4,'11111222,11111222,11111222' 
TCOON,ioos:station:TCOON:005:1,2016-07-01T18:18:00Z,27.6346,-97.2370,0.0,4.7,136.0,6.4,'1111122,1111122,1111122' 
TCOON,ioos:station:TCOON:005:1,2016-07-01T18:24:00Z,27.6346,-97.2370,0.0,5.8,134.0,7.2,'11111222,11111222,11111222' 
TCOON,ioos:station:TCOON:005:1,2016-07-01T18:30:00Z,27.6346,-97.2370,0.0,4.7,137.0,6.8,'11111222,11111222,11111222' 
TCOON,ioos:station:TCOON:005:1,2016-07-01T18:36:00Z,27.6346,-97.2370,0.0,5.8,127.0,7.8,'11111222,11111222,11111222' 
TCOON,ioos:station:TCOON:005:1,2016-07-01T18:42:00Z,27.6346,-97.2370,0.0,4.7,144.0,7.8,'11111222,11111222,11111222' 
TCOON,ioos:station:TCOON:005:1,2016-07-01T18:48:00Z,27.6346,-97.2370,0.0,5.0,131.0,6.8,'11111222,11111222,11111222' 
TCOON,ioos:station:TCOON:005:1,2016-07-01T18:54:00Z,27.6346,-97.2370,0.0,6.0,128.0,7.4,'11111222,11111222,11111222' 
TCOON,ioos:station:TCOON:005:1,2016-07-01T19:00:00Z,27.6346,-97.2370,0.0,5.3,128.0,8.2,'11111222,11111222,11111222' 
TCOON,ioos:station:TCOON:005:1,2016-07-01T19:06:00Z,27.6346,-97.2370,0.0,5.1,142.0,8.2,'11111222,11111222,11111222' 
TCOON,ioos:station:TCOON:005:1,2016-07-01T19:12:00Z,27.6346,-97.2370,0.0,5.5,123.0,7.1,'11111222,11111222,11111222' 
TCOON,ioos:station:TCOON:005:1,2016-07-01T19:18:00Z,27.6346,-97.2370,0.0,5.5,123.0,7.1,'1111122,1111122,1111122' 
TCOON,ioos:station:TCOON:005:1,2016-07-01T19:24:00Z,27.6346,-97.2370,0.0,5.8,140.0,9.0,'11111222,11111222,11111222' 
TCOON,ioos:station:TCOON:005:1,2016-07-01T19:30:00Z,27.6346,-97.2370,0.0,5.7,123.0,7.2,'11111222,11111222,11111222' 
TCOON,ioos:station:TCOON:005:1,2016-07-01T19:36:00Z,27.6346,-97.2370,0.0,6.0,140.0,8.4,'11111222,11111222,11111222' 
TCOON,ioos:station:TCOON:005:1,2016-07-01T19:42:00Z,27.6346,-97.2370,0.0,6.7,125.0,8.5,'11111222,11111222,11111222' 
TCOON,ioos:station:TCOON:005:1,2016-07-01T19:48:00Z,27.6346,-97.2370,0.0,7.1,130.0,8.5,'11111222,11111222,11111222' 
TCOON,ioos:station:TCOON:005:1,2016-07-01T19:54:00Z,27.6346,-97.2370,0.0,6.4,137.0,8.2,'11111222,11111222,11111222' 
TCOON,ioos:station:TCOON:005:1,2016-07-01T20:00:00Z,27.6346,-97.2370,0.0,6.8,131.0,8.6,'11111222,11111222,11111222' 
TCOON,ioos:station:TCOON:005:1,2016-07-01T20:06:00Z,27.6346,-97.2370,0.0,7.4,121.0,9.5,'11111222,11111222,11111222' 
TCOON,ioos:station:TCOON:005:1,2016-07-01T20:12:00Z,27.6346,-97.2370,0.0,5.5,125.0,7.7,'11111222,11111222,11111222' 
TCOON,ioos:station:TCOON:005:1,2016-07-01T20:18:00Z,27.6346,-97.2370,0.0,5.5,125.0,7.7,'1111122,1111122,1111122' 
TCOON,ioos:station:TCOON:005:1,2016-07-01T20:24:00Z,27.6346,-97.2370,0.0,7.3,119.0,9.7,'11111222,11111222,11111222' 
TCOON,ioos:station:TCOON:005:1,2016-07-01T20:30:00Z,27.6346,-97.2370,0.0,6.2,130.0,8.8,'11111222,11111222,11111222' 
TCOON,ioos:station:TCOON:005:1,2016-07-01T20:36:00Z,27.6346,-97.2370,0.0,6.6,128.0,9.5,'11111222,11111222,11111222' 
TCOON,ioos:station:TCOON:005:1,2016-07-01T20:42:00Z,27.6346,-97.2370,0.0,6.3,131.0,9.1,'11111222,11111222,11111222' 
TCOON,ioos:station:TCOON:005:1,2016-07-01T20:48:00Z,27.6346,-97.2370,0.0,7.3,122.0,9.1,'11111222,11111222,11111222' 
TCOON,ioos:station:TCOON:005:1,2016-07-01T20:54:00Z,27.6346,-97.2370,0.0,7.6,124.0,9.3,'11111222,11111222,11111222' 
TCOON,ioos:station:TCOON:005:1,2016-07-01T21:00:00Z,27.6346,-97.2370,0.0,6.8,117.0,8.9,'11111222,11111222,11111222' 
TCOON,ioos:station:TCOON:005:1,2016-07-01T21:06:00Z,27.6346,-97.2370,0.0,6.4,124.0,9.4,'11111222,11111222,11111222' 